{"data":{"norad_id":69344,"epoch":"2026-09-20T01:32:04.585344Z","epoch_age_seconds":66778,"freshness":"FRESH","line1":"1 69344U 26122R   26263.06394196  .00019077  00000+0  59130-3 0  9990","line2":"2 69344  97.2821 291.7054 0002579  86.8048 273.3490 15.33466131 16730","mean_motion":15.33466131,"eccentricity":0.0002579,"inclination_deg":97.2821,"raan_deg":291.7054,"arg_perigee_deg":86.8048,"mean_anomaly_deg":273.349,"bstar":0.0005913,"rev_number":1673,"period_min":93.904910639334,"perigee_km":463.71533530826,"apogee_km":467.24527311378,"semimajor_km":6843.617304211,"source":"CELESTRAK","updated_at":"2026-09-20T09:00:44.162128Z"}}